TimePDT,TemperatureF,Dew PointF,Humidity,Sea Level PressureIn,VisibilityMPH,Wind Direction,Wind SpeedMPH,Gust SpeedMPH,PrecipitationIn,Events,Conditions,WindDirDegrees,DateUTC
12:53 AM,55.0,48.0,77,30.09,10.0,North,5.8,-,N/A,,Partly Cloudy,10,2013-07-05 07:53:00
1:53 AM,55.0,48.0,77,30.08,10.0,Calm,Calm,-,N/A,,Mostly Cloudy,0,2013-07-05 08:53:00
2:53 AM,55.9,50.0,80,30.07,10.0,Calm,Calm,-,N/A,,Overcast,0,2013-07-05 09:53:00
3:53 AM,55.9,48.9,77,30.07,10.0,Calm,Calm,-,N/A,,Overcast,0,2013-07-05 10:53:00
4:53 AM,55.0,48.9,80,30.07,10.0,Calm,Calm,-,N/A,,Overcast,0,2013-07-05 11:53:00
5:53 AM,55.9,48.9,77,30.07,10.0,Calm,Calm,-,N/A,,Overcast,0,2013-07-05 12:53:00
6:53 AM,57.0,48.9,74,30.08,10.0,WSW,4.6,-,N/A,,Overcast,250,2013-07-05 13:53:00
7:53 AM,57.9,51.1,78,30.08,10.0,West,3.5,-,N/A,,Overcast,260,2013-07-05 14:53:00
8:53 AM,60.1,51.1,72,30.08,10.0,Variable,3.5,-,N/A,,Overcast,0,2013-07-05 15:53:00
9:53 AM,62.1,50.0,65,30.08,10.0,Calm,Calm,-,N/A,,Overcast,0,2013-07-05 16:53:00
10:23 AM,60.8,50.0,68,30.07,10.0,SSW,3.5,-,N/A,,Overcast,210,2013-07-05 17:23:00
10:53 AM,63.0,50.0,63,30.07,10.0,SSE,4.6,-,N/A,,Overcast,160,2013-07-05 17:53:00
11:53 AM,64.0,48.9,58,30.06,10.0,Calm,Calm,-,N/A,,Overcast,0,2013-07-05 18:53:00
12:53 PM,66.0,50.0,56,30.06,10.0,Variable,3.5,-,N/A,,Overcast,0,2013-07-05 19:53:00
1:53 PM,69.1,51.1,53,30.04,10.0,Calm,Calm,-,N/A,,Mostly Cloudy,0,2013-07-05 20:53:00
2:53 PM,70.0,52.0,53,30.03,10.0,Variable,3.5,-,N/A,,Partly Cloudy,0,2013-07-05 21:53:00
3:53 PM,71.1,51.1,49,30.01,10.0,Variable,4.6,-,N/A,,Clear,0,2013-07-05 22:53:00
4:53 PM,73.0,52.0,48,29.99,10.0,ENE,6.9,-,N/A,,Clear,70,2013-07-05 23:53:00
5:53 PM,73.0,52.0,48,29.96,10.0,Variable,3.5,-,N/A,,Partly Cloudy,0,2013-07-06 00:53:00
6:53 PM,73.0,52.0,48,29.96,10.0,NE,4.6,-,N/A,,Scattered Clouds,40,2013-07-06 01:53:00
7:53 PM,72.0,53.1,51,29.95,10.0,Variable,3.5,-,N/A,,Scattered Clouds,0,2013-07-06 02:53:00
8:53 PM,70.0,53.1,55,29.96,10.0,Variable,3.5,-,N/A,,Partly Cloudy,0,2013-07-06 03:53:00
9:53 PM,64.9,51.1,61,29.98,10.0,NNW,5.8,-,N/A,,Clear,340,2013-07-06 04:53:00
10:53 PM,62.1,51.1,67,29.98,10.0,NNW,9.2,-,N/A,,Clear,340,2013-07-06 05:53:00
11:53 PM,60.1,50.0,69,29.99,10.0,NNW,4.6,-,N/A,,Clear,340,2013-07-06 06:53:00